Theta_e
302 302 303 303 303 304 305 305 305 306 306 306 307 307 307 307 308 310 311 313 312 311 307 306 309 310 308 308 310 308 314 315 316 316 316 311 311 309 308 312 310 313 316 321 330
302 302 302 303 303 304 304 304 305 305 306 306 306 307 307 307 309 310 311 306 304 304 305 307 307 307 305 308 308 312 313 314 312 313 314 313 309 308 310 308 310 315 311 310 330
301 301 302 302 303 303 304 304 304 305 306 306 306 306 306 307 308 309 307 305 304 303 308 307 307 307 308 307 309 310 313 311 313 312 307 312 308 307 308 308 312 314 311 308 311
301 301 301 302 302 303 304 304 304 305 306 306 306 306 306 308 302 306 306 305 306 306 306 306 305 307 307 308 305 309 308 310 310 305 304 305 305 306 306 306 307 307 312 309 306
301 301 301 301 302 303 303 303 305 305 306 306 306 306 307 306 307 304 304 304 304 305 305 304 306 306 307 305 304 305 304 303 303 302 302 303 304 304 303 304 304 304 305 307 309
301 300 301 301 302 302 303 304 305 306 307 307 306 306 308 301 303 302 302 303 304 304 303 303 303 304 304 304 303 302 303 303 302 302 302 303 302 303 302 301 302 303 302 301 300
300 300 300 301 302 301 302 303 305 307 307 305 306 307 306 300 302 302 301 301 303 303 302 303 304 303 302 303 303 302 302 300 301 303 302 301 304 303 302 301 301 301 301 299 298
300 300 300 301 301 301 302 303 306 307 307 307 306 306 304 303 301 302 302 302 302 302 303 303 304 302 302 302 299 301 300 301 301 302 302 302 304 304 302 300 302 301 299 297 296
299 299 300 300 300 300 301 303 307 307 308 307 307 306 303 300 301 301 301 302 303 303 304 304 301 299 301 299 299 299 301 301 302 301 302 302 303 303 300 300 300 298 297 298 297
299 299 300 300 300 300 299 302 306 307 308 308 307 301 303 300 300 301 301 302 302 303 301 302 298 299 298 298 300 301 302 302 302 302 301 301 301 300 299 299 299 299 298 298 298
299 299 300 300 299 299 300 302 300 299 302 302 302 302 302 303 301 301 302 302 302 301 302 302 301 299 298 299 301 302 303 303 301 301 302 301 300 300 299 299 299 299 299 298 299
298 299 299 298 298 296 298 297 296 296 299 300 300 302 303 303 302 301 302 302 302 303 303 303 304 302 301 300 301 303 304 303 301 301 301 300 301 301 300 299 297 297 296 297 297
298 298 298 296 296 296 296 296 297 297 297 302 302 304 304 303 302 302 301 301 302 303 302 302 301 302 303 303 304 303 303 302 302 301 300 298 298 301 299 296 294 294 294 294 295
298 298 298 293 295 295 294 297 297 298 293 297 303 302 301 303 302 301 301 301 301 302 301 301 300 302 303 302 301 303 301 301 302 301 300 299 295 301 298 295 294 293 291 292 293
298 298 296 293 294 293 294 298 298 295 290 297 302 300 299 300 300 300 300 301 302 302 300 301 302 301 301 301 301 303 301 301 301 300 300 300 296 297 297 296 294 292 291 291 291
298 298 296 292 292 294 297 298 296 294 292 300 299 298 301 300 300 299 300 298 299 300 299 298 297 299 301 300 301 301 300 296 297 299 291 298 299 296 300 297 295 293 290 290 290
297 297 296 290 290 294 298 294 294 291 291 292 298 297 299 299 300 300 299 299 299 297 298 297 298 298 299 300 299 299 298 289 289 289 294 297 299 297 298 295 293 291 291 289 289
297 294 293 291 291 296 296 292 288 283 284 296 296 298 299 296 299 298 299 299 296 297 296 297 297 298 298 299 299 299 298 292 288 291 296 299 300 301 296 294 292 292 291 289 289
295 293 292 291 292 298 290 286 290 286 291 296 294 291 291 297 296 298 298 297 296 296 298 297 299 297 297 297 299 300 298 296 290 285 293 299 299 296 291 294 293 291 289 289 289
294 292 292 291 294 294 290 292 288 293 294 295 292 288 284 287 295 297 296 296 296 295 296 297 298 297 297 297 297 300 299 299 292 296 297 296 298 300 293 291 293 292 290 289 289
293 291 291 291 295 289 287 283 292 293 293 294 292 286 292 289 293 293 295 295 294 292 294 295 297 297 296 297 298 297 296 297 298 295 292 290 296 296 295 291 293 291 290 289 289
290 289 291 294 286 273 281 288 294 291 290 292 294 293 292 291 288 293 295 295 290 291 293 292 295 292 295 292 290 292 298 297 296 295 295 294 297 288 291 290 290 290 291 290 289
290 289 290 291 286 281 282 290 291 290 290 291 293 294 291 287 288 288 290 290 289 290 290 290 286 281 287 287 290 292 294 294 287 290 293 292 297 288 288 288 288 288 288 289 289
286 287 283 286 286 287 283 287 290 289 289 290 291 291 289 286 286 281 289 290 290 289 292 289 285 282 286 287 287 287 288 288 285 284 287 292 288 290 289 289 288 289 288 288 288
284 284 283 285 286 287 288 288 290 287 289 289 289 291 290 282 282 282 284 289 288 289 288 285 281 280 281 284 286 286 286 287 284 281 284 286 284 280 286 287 288 287 287 287 287
286 284 279 276 286 288 288 285 288 288 288 289 286 289 286 284 286 282 281 282 286 284 285 284 281 284 279 286 286 287 286 286 286 286 284 285 286 286 287 286 286 286 285 286 284
286 286 284 285 285 284 286 286 289 288 288 289 287 286 288 287 283 285 285 285 285 284 282 282 281 277 277 283 283 282 284 286 284 282 282 282 286 286 283 285 282 285 285 284 283
Wind_Speed
10 10 11 11 11 11 11 11 11 10 9 8 7 6 7 7 5 3 2 2 5 9 8 4 1 1 2 2 2 3 3 3 4 4 4 2 5 3 3 2 4 5 3 10 12
9 10 11 12 12 13 13 12 11 10 9 9 7 6 6 4 3 4 2 5 5 4 1 2 2 1 3 1 2 4 3 6 5 3 3 3 1 4 5 8 4 4 7 19 10
10 10 10 12 13 14 15 14 12 11 11 9 7 5 5 2 2 1 3 4 4 2 2 1 1 1 2 1 1 3 5 5 4 5 5 4 4 3 1 5 4 5 7 12 10
12 12 12 12 13 14 14 15 13 11 10 6 5 4 1 1 3 1 3 4 3 2 1 1 2 2 2 2 1 1 3 2 4 3 5 5 5 5 6 8 7 8 6 6 10
12 14 14 15 14 15 14 12 12 10 7 6 4 2 0 3 1 2 3 2 2 1 4 2 1 2 2 1 2 3 2 4 6 8 7 4 6 6 7 9 10 7 4 6 8
12 14 16 17 16 16 14 12 10 9 7 5 2 3 1 2 3 3 3 3 4 2 3 4 2 2 3 1 1 2 3 6 7 7 5 5 3 2 2 7 7 4 6 6 7
14 14 15 17 18 16 13 11 9 7 6 3 4 2 1 3 2 2 3 3 3 2 2 3 2 1 2 0 2 3 6 7 2 3 2 3 4 3 2 7 8 9 5 7 7
14 16 16 16 18 16 13 7 4 5 3 5 5 1 1 1 2 3 1 2 3 3 4 3 2 3 1 1 5 3 3 4 4 5 5 1 6 5 4 6 7 7 7 8 9
14 15 16 17 18 16 11 5 2 4 4 4 1 1 1 1 2 2 1 1 3 3 4 4 4 3 4 3 4 4 2 2 6 4 3 5 7 6 15 10 7 7 7 8 8
14 16 17 18 17 14 7 0 2 2 2 0 1 1 1 1 2 1 1 2 3 3 4 5 5 3 3 3 4 3 2 2 3 4 6 5 5 7 11 11 9 9 9 9 9
13 15 18 19 13 11 2 2 3 3 1 2 1 0 1 1 2 1 2 3 3 5 1 3 3 5 8 6 2 2 1 2 4 6 2 3 5 6 7 10 11 10 10 10 11
13 16 16 18 12 8 1 3 2 1 3 1 4 3 1 1 3 1 2 3 2 2 1 4 6 6 3 4 3 2 1 3 4 2 1 4 1 2 6 6 7 9 11 12 13
13 14 17 14 5 3 5 3 2 1 1 1 2 2 1 3 2 2 4 2 2 2 4 5 2 5 3 2 3 3 4 4 5 4 2 5 2 4 4 6 7 9 8 10 12
11 14 15 9 1 2 3 2 2 2 4 2 1 2 1 1 1 1 2 2 1 2 2 5 4 3 3 2 3 3 4 3 4 3 3 2 4 4 3 4 6 7 8 9 11
11 13 12 8 2 2 2 2 2 1 4 3 1 3 2 2 1 2 3 3 2 1 4 4 2 1 4 6 7 5 2 2 1 3 2 2 2 4 7 3 2 5 6 8 9
9 10 10 2 2 2 2 3 1 6 6 1 4 4 2 4 2 2 3 5 1 0 1 6 3 2 4 2 4 3 3 6 4 2 2 7 7 4 6 6 4 1 5 6 7
9 9 6 2 0 2 5 3 5 4 4 4 2 3 3 4 2 2 2 2 1 3 3 4 3 3 3 3 1 3 5 3 5 3 6 3 3 6 2 7 6 5 3 6 6
7 8 2 1 1 6 2 5 4 2 5 1 1 2 3 4 1 2 2 2 2 3 1 2 6 3 1 4 5 5 7 5 6 3 4 2 6 4 4 7 7 4 3 5 7
6 2 3 1 4 7 4 3 7 6 5 6 3 4 3 2 1 1 3 4 4 6 7 4 5 3 1 1 3 3 4 4 6 1 3 4 2 2 4 6 5 4 3 5 6
2 2 3 1 7 3 4 5 4 3 4 2 6 3 5 3 2 3 3 3 4 3 1 3 4 1 4 1 1 4 4 2 2 2 5 4 4 4 11 10 6 4 1 3 4
3 2 2 7 6 4 3 7 4 4 4 4 5 4 4 5 4 3 4 1 3 3 2 4 3 3 1 1 4 1 1 1 2 5 5 1 5 3 12 11 9 6 5 5 5
4 1 3 9 3 1 3 6 5 4 2 2 3 3 7 5 5 3 5 1 2 4 5 3 3 3 6 1 2 3 2 1 3 5 2 3 7 8 6 11 8 6 6 5 5
3 2 2 4 3 2 4 2 4 4 5 5 6 3 3 5 0 3 2 1 1 3 5 4 1 2 8 5 3 2 1 3 4 1 4 3 6 5 6 5 3 3 5 6 5
3 1 3 2 0 5 4 3 3 1 2 3 3 4 3 1 3 3 3 1 2 1 4 2 2 6 5 3 2 3 2 3 4 3 1 6 6 4 3 4 7 10 6 7 7
2 4 3 3 3 4 4 4 5 5 2 3 1 5 6 3 2 4 2 1 2 4 2 4 4 3 4 6 4 6 5 6 6 5 6 9 8 4 5 7 8 7 12 12 10
5 4 2 2 2 6 6 5 8 3 6 4 4 6 5 6 7 7 6 3 5 3 3 2 2 2 4 6 7 15 5 10 13 8 10 16 23 8 14 7 10 9 10 13 8
5 3 4 2 3 5 5 6 8 8 3 2 5 4 4 6 6 3 4 3 3 7 5 4 4 3 5 5 6 10 9 16 4 6 8 8 18 5 6 7 8 13 11 11 11
Wind_Direction
359 352 346 342 337 333 333 336 336 337 335 331 329 327 332 336 343 94 62 359 304 307 321 333 28 69 77 81 91 137 66 214 239 186 254 20 22 312 267 285 320 311 13 307 319
351 345 341 339 334 332 332 334 333 331 324 318 315 318 326 356 73 69 38 331 322 301 59 67 94 99 42 49 35 97 158 216 217 234 273 314 271 336 349 335 322 304 326 356 3
342 341 340 336 333 332 330 328 327 323 317 313 313 315 322 37 88 2 22 10 6 21 43 14 77 89 88 78 170 169 208 210 248 268 358 279 305 227 345 307 246 257 295 328 339
337 336 333 333 334 332 329 325 325 324 315 311 303 294 321 97 140 64 8 21 56 7 16 24 20 76 98 173 343 278 262 311 300 332 327 304 323 290 196 236 262 278 260 291 314
335 334 334 333 334 330 329 327 328 324 325 320 312 282 149 51 141 22 350 4 28 44 70 77 104 131 161 193 322 205 265 282 274 288 262 260 250 255 267 269 271 298 313 290 285
333 334 335 334 333 334 331 330 333 331 309 274 258 186 250 104 93 23 23 23 43 55 70 63 150 179 126 180 203 314 272 271 281 281 265 254 284 46 332 318 313 322 316 319 312
330 335 337 335 332 333 332 327 326 346 337 181 179 165 350 155 75 41 31 35 44 57 96 78 81 120 136 118 323 302 316 327 286 335 314 178 327 204 276 341 349 351 342 327 345
329 333 336 335 333 331 332 333 341 5 54 128 142 331 184 93 76 80 44 53 66 63 84 65 71 102 58 302 18 12 54 3 307 3 357 43 274 262 313 6 336 344 3 9 17
329 331 333 336 335 332 332 328 131 100 110 116 355 337 176 67 90 13 2 50 74 68 63 80 75 85 26 79 7 10 250 245 321 62 50 61 285 345 353 346 6 38 19 22 10
329 331 333 337 337 335 325 112 158 141 155 25 309 350 357 113 55 30 106 111 82 64 19 42 49 74 44 99 228 219 227 269 267 312 4 320 278 1 6 41 27 25 11 18 19
331 334 335 333 342 341 59 141 31 334 261 239 268 51 135 90 99 108 121 109 52 40 92 0 74 214 218 200 126 114 164 258 266 282 259 256 346 19 13 34 22 18 14 12 15
331 333 337 330 343 354 344 87 78 322 313 233 287 307 290 17 61 333 130 109 85 201 98 22 244 236 209 170 194 156 225 267 284 253 281 356 67 81 34 43 33 15 12 10 9
326 335 337 332 344 6 63 90 59 352 113 275 214 169 231 129 182 225 136 137 146 189 203 187 246 44 148 178 168 220 193 199 218 328 314 356 266 214 73 46 35 25 8 11 10
329 335 342 345 345 32 58 47 99 56 60 274 303 355 50 118 27 89 147 110 25 250 203 245 283 208 208 240 153 291 226 193 168 114 231 60 276 213 129 60 32 13 7 360 1
323 336 343 19 50 41 354 109 99 9 2 322 1 335 8 98 142 26 34 63 200 217 110 258 339 178 210 224 166 232 138 139 114 113 46 269 77 278 137 147 32 358 2 355 352
308 332 335 341 39 69 137 131 17 44 256 346 341 349 72 15 18 56 50 38 122 91 213 244 290 252 223 181 176 133 108 46 42 82 353 218 174 229 191 176 170 355 360 355 349
312 320 316 11 218 127 132 39 46 133 328 297 27 16 36 15 18 51 44 31 164 60 335 309 229 254 187 172 86 106 76 329 348 7 225 346 149 257 145 131 144 141 30 350 351
303 313 195 89 339 147 108 57 100 240 219 134 58 79 115 346 335 344 112 227 194 115 150 170 318 187 64 210 194 187 159 163 214 211 268 103 233 280 124 121 125 116 29 8 3
300 190 168 16 163 152 75 79 204 198 180 163 73 86 312 306 262 258 219 208 188 183 184 169 263 314 211 322 134 194 184 169 109 107 42 238 300 177 142 157 151 131 43 6 351
285 177 161 170 154 119 78 234 197 208 156 157 174 150 186 243 211 201 208 206 182 192 158 198 290 182 285 225 47 170 152 126 5 157 236 278 280 251 194 192 180 194 224 326 331
151 87 149 152 150 56 171 224 211 226 172 161 190 142 216 194 211 221 219 180 177 160 177 155 161 279 288 230 183 58 247 36 139 154 182 242 255 333 212 178 165 201 222 258 287
137 99 148 159 58 9 170 185 183 170 163 160 133 130 183 169 185 238 230 248 192 167 174 193 168 238 237 278 284 285 288 174 171 237 224 156 259 340 145 148 158 200 223 251 257
151 154 99 162 164 254 294 233 201 153 195 177 186 169 132 172 204 214 244 28 180 161 168 202 273 2 337 355 10 237 124 90 108 87 220 160 266 32 53 99 173 199 249 254 268
107 118 328 59 233 147 142 229 218 236 150 140 129 98 101 91 37 236 232 180 12 166 125 90 117 169 194 183 135 280 154 128 120 126 181 231 292 193 213 254 272 266 265 274 262
89 232 190 208 255 165 161 147 151 174 191 171 133 202 160 164 354 231 299 314 331 343 77 115 200 162 253 251 248 240 212 209 186 188 191 272 262 164 211 236 250 261 287 286 281
146 146 353 154 152 120 177 224 174 183 149 207 178 188 162 167 186 204 150 201 212 360 113 8 253 106 305 278 259 272 233 223 227 218 253 260 266 246 259 257 262 257 264 274 258
153 120 115 169 120 113 209 195 195 145 247 148 167 116 185 221 183 199 175 172 184 159 169 143 135 85 272 332 346 304 223 221 189 193 182 206 249 299 262 250 247 259 263 256 255